Regional Weather Roundup
Issued by NWS Charleston, SC

Home | Current Version | Previous Version | Text Only | Print | Product List | Glossary On
Versions: 1 2 3 4 5 6 7 8 9 10 11 12 13 14 15 16 17 18 19 20 21 22 23 24 25 26 27 28 29 30 31 32 33 34 35 36 37 38 39 40 41 42 43 44 45 46 47 48 49 50
009
ASUS42 KCHS 181627
RWRCHS

REGIONAL WEATHER ROUNDUP
NATIONAL WEATHER SERVICE CHARLESTON SC
1100 AM EST WED JAN 18 2017

NOTE: "FAIR" INDICATES FEW OR NO CLOUDS BELOW 12,000 FEET WITH NO
SIGNIFICANT WEATHER AND/OR OBSTRUCTIONS TO VISIBILITY.

NOT ALL STATIONS ARE QUALITY CONTROLLED. USE DATA WITH CAUTION...
ESPECIALLY DEWPOINT OBSERVATIONS.

SCZ027-030-031-034>040-042>050-181700-
...SOUTHEAST SOUTH CAROLINA...

CITY           SKY/WX    TMP DP  RH WIND       PRES   REMARKS
N CHARLESTON   MOSUNNY   71  60  68 W17       30.10F
WATERFRONT PRK   N/A     70  63  78 W7        30.10S
MOUNT PLEASANT FAIR      72  63  73 W9G16     30.08F
JOHNS ISLAND   PTSUNNY   70  63  78 W13G22    30.11F
PINOPOLIS        N/A     64  61  88 SW14      30.00F
MONCKS CORNER  FAIR      72  59  64 W12G17    30.07F
SUMMERVILLE    FAIR      68  63  83 SW9       30.10F
BEAUFORT MCAS  PTSUNNY   69  61  75 W12G20    30.13F
BEAUFORT ARPT  PTSUNNY   66  61  82 W14G22    30.13F
HILTON HEAD IS CLOUDY    72  63  73 W14       30.17R
WALTERBORO     PTSUNNY   72  72 100 W12       30.11F
ALLENDALE      PTSUNNY   72  63  73 VRB7G14   30.10F

...SOUTHERN MIDLANDS AND PEE DEE...

CITY           SKY/WX    TMP DP  RH WIND       PRES   REMARKS
GEORGETOWN     FAIR      73  61  64 W15G22    30.06F
KINGSTREE      CLOUDY    72  59  64 SW13G21   30.03F
ORANGEBURG     SUNNY     71  60  68 W15G23    30.08F
BARNWELL       FAIR      73  64  73 SW13      30.10F
AIKEN          FAIR      72  59  64 W18G24    30.12F
MANNING        PTSUNNY   70  59  68 SW12G17   30.05F
COLUMBIA       MOSUNNY   75  59  57 W13G24    30.04F
SUMTER         PTSUNNY   72  59  62 W15       30.01F
FLORENCE       CLOUDY    71  60  68 W12       30.02R
MYRTLE BEACH   SUNNY     73  61  64 W12       30.05F
N MYRTLE BEACH CLOUDY    72  60  66 SW12G21   30.01F

$$

GAZ063-065-086>088-099>101-113>116-118-119-134>141-150-181700-
...SOUTHEAST GEORGIA...

CITY           SKY/WX    TMP DP  RH WIND       PRES   REMARKS
SAVANNAH ARPT  CLOUDY    67  60  78 W12       30.17F
HUNTER AAF     CLOUDY    66  62  88 W16G22    30.15R
FORT STEWART   CLOUDY    66  61  82 W7        30.16S
STATESBORO     PTSUNNY   71  64  78 W10G16    30.15F
SYLVANIA       MOSUNNY  N/A N/A N/A W10       30.16F
CLAXTON        PTSUNNY  N/A N/A N/A SW7       30.18F

...CSRA...CENTRAL AND FAR SOUTHEAST GEORGIA...

CITY           SKY/WX    TMP DP  RH WIND       PRES   REMARKS
THOMSON        PTSUNNY   73  63  71 W16       30.17S
AUGUSTA-BUSH   MOSUNNY   75  61  61 W12       30.11S
AUGUSTA-DANIEL MOSUNNY   73  58  59 W9G17     30.12S
SWAINSBORO     CLOUDY    70  61  73 MISG      30.16F
VIDALIA        CLOUDY    70  64  83 W9        30.18F
EASTMAN        CLOUDY    70  55  57 W7        30.21F
HAZLEHURST     CLOUDY    69  67  93 W6        30.19F
ALMA           CLOUDY    69  64  84 W15       30.20R
WAYCROSS       MOSUNNY   74  69  85 NW9       30.19S
JESUP          FAIR      72  61  68 W12G24    30.19R
BAXLEY         CLOUDY    70  68  94 NW9       30.20S
BRUNSWICK      SUNNY     73  64  73 W10       30.17F
SAINT SIMONS   SUNNY     71  63  75 W9        30.17F

$$

SCZ027-028-034-036>038-045-046-048>050-GAZ119-141-181700-
...LAKE AND SUPPLEMENTAL COASTAL OBSERVATIONS...

STATION/POSITION TIME  TEMP    WIND        PRES    WAVE   SWELL
                       AIR SEA DIR/SP/G            HT/PER HT/PER/DIR
                 (UTC) (F)     (DEG/KT/KT) (MB)    (FT/S) (FT/S/D)
WINYAH BAY       1545   70     260/ 10     1018.0S
LAKE MURRAY      1620   68     270/ 12/ 17 1017.3
ACE BASIN NERRS  1530   68     290/  5     1021.0R
FORT PULASKI     1600   64 57  320/ 18/ 23 1021.7
SAPELO ISLAND    1600   72     270/  9     1021.0

$$

ANZ835-935-AMZ111-154-330-350-352-354-370-450-454-472-181700-
...C-MAN AND BUOY OBSERVATIONS...

STATION/POSITION TIME  TEMP    WIND        PRES    WAVE   SWELL
                       AIR SEA DIR/SP/G            HT/PER HT/PER/DIR
                 (UTC) (F)     (DEG/KT/KT) (MB)    (FT/S) (FT/S/D)
BUOY 41004       1550   68 71  260/ 19/ 23 1018.7F   4/ 4   2/150/ 9
BUOY 41008       1550   61 59  210/  8/ 10 1021.1F   2/ 9   2/ 90/ 9
FOLLY BEACH CMAN 1600   71     280/ 10/ 15 1020.2F
CAPERS NEARSHORE 1508   56 54  240/  8/ 12 1019.5R
FRIPP NEARSHORE  1608   62 57  290/ 12/ 16 1020.9R


STATION/POSITION TIME  TEMP    WIND        PRES    WAVE   SWELL
                       AIR SEA DIR/SP/G            HT/PER HT/PER/DIR
                 (UTC) (F)     (DEG/KT/KT) (MB)    (FT/S) (FT/S/D)
5E ST. MARYS GA  1600      62                N/A     2/ 8
FRYING PAN BUOY  1610   69 71  230/ 23/ 27 1016.3
BUOY 41025       1550   68 72  260/ 25/ 29 1013.0F   9/ 7
CAPE LOOKOUT NC  1600   60     260/ 14/ 17 1014.4F
BUOY 41002       1550   70 71  240/ 17/ 25 1018.6F   6/ 6   2/ 80/10
BUOY 41010       NOT AVBL
ST AUGUSTINE FL  1600   74 62  260/  7/  8 1023.1F


$$




USA.gov is the U.S. government's official web portal to all federal, state and local government web resources and services.